EXPRESS 80

Last updated on Mon Jun 22 2026 00:03:07 GMT+0000 (Coordinated Universal Time)

1 45986U 20053B 26172.02997734 .00000000 00000+0 00000+0 0 9999 2 45986 0.0207 334.7137 0001767 200.4812 184.8068 1.00269342 21677
UTC large
Height (km)
Speed (km/s)
/
Latitude / Longitude
Inclination (degrees)
Orbital Period (minutes)
Azimuth
Elevation
Range (km)
Doppler Factor

Next 0 passes for location: London (51.5072 / 0.1276)

No passes found over London.
EXPRESS 80